Voltar ao catálogo

ORBCOMM FM 16 DEB

AtivoLEO
NORAD 44023·DEBRIS·🇺🇸 United States

Lançado Aug 2, 1998 de Cape Canaveral Space Force Station

Loading…

Próximas Passagens (próximas 24 horas)

TLE

AtualizadoSource: Space-Track

Época: Sep 14, 2026, 01:13 UTC

1 44023U 98046S   26257.05122497  .00000314  00000-0  15814-3 0  9992
2 44023  45.0032 244.9068 0006998 204.8637 155.1874 14.35092758402230

Acompanhe ORBCOMM FM 16 DEB em tempo real com AllMySat

Download on the App Store